Showing default

DIWATA 2B, 43678

Orbit data source: Space-Track

DIWATA 2B, 43678 is a Filipino payload satellite in SSO that was launched on Mon, 29 Oct 2018 UTC via an H-IIA 202 launch vehicle from the Tanegashima Space Center (TNSTA). Payload-class satellites include a variety of spacecraft equipped with specific instruments for various scientific and technological missions. These include communications satellites like Starlink; space stations such as the ISS; scientific satellites like the Hubble; Earth observation satellites from companies like Planet Labs, Umbra, and HawkEye 360; GPS; miniature CubeSats for education and research; and military/defense satellites.

Loading next visibility...
Identifier
43678, 2018-084H
Orbit
SSO
Country
Flag of RPRP
Related business
Manufacturer
UPD/HOKK
Mission
Operational Civil Imaging
Bus & Motor
DIWATA, Unknown motor
Mass
56 kg wet, 56 kg dry
Launch date (UTC)
2018-10-29 (7 years ago)
Launch vehicle
H-IIA 202
Launch site
Tanegashima Space Center (TNSTA)
Object type
Payload
Rocket body
Debris
Shape & HBR
Box + 2 Pan, 0.8 m
Radar Cross Section
0.514 m², Medium (>0.1 m² and < 1m²)

Expand to show TLE details & history
Last TLE update: 5 hours ago

TLE from 5 hours ago
0 DIWATA 2B
1 43678U 18084H   25308.47733265  .00002273  00000-0  19198-3 0  9999
2 43678  98.1087 130.4013 0007945 140.8656 219.3142 14.99162437382539
Epoch: 2025-11-04T11:27Z
TLE epoch observation values (Epoch: 2025-11-04T11:27:21.540Z)
Latitude
-0.00002°
Longitude
-85.40224°
Altitude
576.797 km
Speed
7.57 km/s
True Right ascension
08h 41m 36s
True Declination
0° 00' 00"
Sunlit
Object was in daylight at epoch
Visualization orbit readout
Latitude
Unknown
Longitude
Unknown
Altitude
Unknown
Speed
Unknown
Apparent Right ascension
Unknown
Apparent Declination
Unknown
Sunlit
N/A
Visualization observer readout
Local Sidereal Time
12:51:17
Azimuth
Unknown
Elevation
Unknown
Doppler factor
Unknown
Orbital elements
Apogee altitude
572.025 km
Perigee altitude
560.99 km
Semi-major axis
6,944.645 km
Eccentricity
0.00079
Inclination
98.1087°
RAAN
130.4013°
Arg. of periapsis
140.8656°
True anomaly
219.25656°
Mean anomaly
219.3142°
Eccentric anomaly
219.28538°
Mean motion
3.75032 °/min
Orbital period
95.99 mins
BSTAR
0.00019198
Loading maneuver chart data...
Computing Atmospheric mass density...
Loading historical data...
Loading historical data...
Loading historical data...
Loading historical data...
Loading historical data...
Loading historical data...
Loading historical data...

Documentation

Showing up to 5 results
|